Dover AFB, DE

3:29 AM EST on November 25, 2017 (GMT -0500)
Dover Air Force Base

Weather History for KDOV - February, 2013

Change the Weather History Date:

Thursday, February 14, 2013

  Actual Average Record
Temperature  
Mean Temperature 40 °F -  
Max Temperature 46 °F 46 °F 71 °F (1990)
Min Temperature 33 °F 26 °F 1 °F (1979)
Degree Days  
Heating Degree Days 26    
Moisture  
Dew Point 34 °F    
Average Humidity 91    
Maximum Humidity 100    
Minimum Humidity 58    
Precipitation  
Precipitation 0.00 in - - ()
Sea Level Pressure  
Sea Level Pressure 29.91 in    
Wind  
Wind Speed 8 mph (West)    
Max Wind Speed 12 mph    
Max Gust Speed -    
Visibility 8 miles    
Events Rain , Snow    
Averages and records for this station are not official NWS values.
T = Trace of Precipitation, MM = Missing Value Source: NWS Daily Summary

Daily Weather History Graph

Daily Weather History Graph

Search for Another Location

Airport or City:

Trip Planner

Search our weather history database for the weather conditions in past years. The results will help you decide how hot, cold, wet, or windy it might be!

Date:

Astronomy

Feb. 14, 2013 Rise Set
Actual Time 6:54 AM EST 5:38 PM EST
Civil Twilight 6:26 AM EST 6:05 PM EST
Nautical Twilight 5:55 AM EST 6:37 PM EST
Astronomical Twilight 5:24 AM EST 7:08 PM EST
Moon 8:57 AM EST (2/14) 10:36 PM EST (2/14)
Length of Visible Light 11h 38m
Length of Day
10h 43m
Waxing Crescent, 21% of the Moon is Illuminated
Feb 14
Waxing Crescent
Feb 17
First Quarter
Feb 25
Full
Mar 4
Last Quarter
Mar 11
New

Hourly Weather History & Observations

Time (EST) Temp. Windchill Dew Point Humidity Pressure Visibility Wind Dir Wind Speed Gust Speed Precip Events Conditions
12:06 AM 33.8 °F 26.4 °F 32.0 °F 93% 29.72 in 6.0 mi NW 9.2 mph - N/A Rain , Snow Light Rain
12:30 AM 33.8 °F 25.8 °F 33.8 °F 100% 29.73 in 6.0 mi NW 10.4 mph - N/A Rain Light Freezing Rain
12:55 AM 33.4 °F 26.6 °F 33.3 °F 99% 29.74 in 8.0 mi NW 8.1 mph - 0.00 in Rain , Snow Light Rain
1:21 AM 33.8 °F 26.4 °F 33.8 °F 100% 29.75 in 8.0 mi NW 9.2 mph - N/A   Overcast
1:32 AM 33.8 °F 25.8 °F 33.8 °F 100% 29.76 in 9.0 mi NW 10.4 mph - N/A   Overcast
1:40 AM 33.8 °F 27.0 °F 33.8 °F 100% 29.76 in 9.0 mi NW 8.1 mph - N/A   Overcast
1:42 AM 33.8 °F 25.8 °F 33.8 °F 100% 29.76 in 9.0 mi NW 10.4 mph - N/A   Overcast
1:50 AM 33.8 °F 25.8 °F 33.8 °F 100% 29.77 in 8.0 mi NW 10.4 mph - N/A   Overcast
1:55 AM 34.0 °F 25.5 °F 33.8 °F 99% 29.77 in 7.0 mi NW 11.5 mph - 0.00 in   Overcast
2:20 AM 33.8 °F 28.6 °F 33.8 °F 100% 29.81 in 8.0 mi WNW 5.8 mph - N/A   Overcast
2:55 AM 34.7 °F 30.6 °F 34.5 °F 99% 29.81 in 7.0 mi West 4.6 mph - N/A   Overcast
3:23 AM 35.6 °F 31.7 °F 33.8 °F 93% 29.82 in 7.0 mi WNW 4.6 mph - N/A   Overcast
3:29 AM 35.6 °F 32.8 °F 33.8 °F 93% 29.81 in 7.0 mi WNW 3.5 mph - N/A   Overcast
3:55 AM 34.7 °F 28.8 °F 34.5 °F 99% 29.83 in 6.0 mi WNW 6.9 mph - N/A   Overcast
4:41 AM 33.8 °F 26.4 °F 33.8 °F 100% 29.86 in 5.0 mi WNW 9.2 mph - N/A   Partly Cloudy
4:50 AM 33.8 °F 27.0 °F 33.8 °F 100% 29.87 in 5.0 mi WNW 8.1 mph - N/A   Mostly Cloudy
4:55 AM 34.3 °F 26.5 °F 34.0 °F 99% 29.87 in 5.0 mi WNW 10.4 mph - N/A   Mostly Cloudy
5:06 AM 33.8 °F 26.4 °F 33.8 °F 100% 29.88 in 6.0 mi WNW 9.2 mph - N/A   Overcast
5:55 AM 34.2 °F 31.2 °F 34.0 °F 99% 29.90 in 6.0 mi West 3.5 mph - N/A   Mostly Cloudy
6:00 AM 33.8 °F 29.6 °F 33.8 °F 100% 29.90 in 6.0 mi WNW 4.6 mph - N/A   Scattered Clouds
6:42 AM 33.8 °F 30.8 °F 33.8 °F 100% 29.92 in 5.0 mi West 3.5 mph - N/A   Clear
6:55 AM 33.1 °F 28.7 °F 32.7 °F 99% 29.92 in 3.0 mi West 4.6 mph - N/A   Clear
7:55 AM 33.3 °F 27.9 °F 33.1 °F 99% 29.96 in 3.0 mi SW 5.8 mph - N/A   Clear
8:55 AM 36.0 °F 32.1 °F 35.8 °F 99% 29.97 in 5.0 mi West 4.6 mph - N/A   Clear
9:55 AM 39.9 °F 33.9 °F 36.5 °F 88% 29.99 in 10.0 mi WNW 9.2 mph - N/A   Clear
10:25 AM 41.0 °F 35.2 °F 35.6 °F 81% 29.99 in 10.0 mi NW 9.2 mph - N/A   Mostly Cloudy
10:55 AM 41.2 °F 36.0 °F 34.5 °F 77% 30.00 in 10.0 mi WNW 8.1 mph - N/A   Overcast
11:55 AM 43.2 °F 37.9 °F 34.5 °F 72% 29.99 in 10.0 mi NW 9.2 mph - N/A   Mostly Cloudy
12:55 PM 42.8 °F 40.1 °F 33.6 °F 70% 29.98 in 10.0 mi Variable 4.6 mph - N/A   Mostly Cloudy
1:36 PM 42.8 °F 39.3 °F 33.8 °F 70% 29.99 in 10.0 mi WSW 5.8 mph - N/A   Scattered Clouds
1:55 PM 43.3 °F 41.7 °F 32.7 °F 66% 29.98 in 10.0 mi NW 3.5 mph - N/A   Scattered Clouds
2:02 PM 44.6 °F 41.4 °F 33.8 °F 66% 29.98 in 10.0 mi West 5.8 mph - N/A   Mostly Cloudy
2:21 PM 46.4 °F 44.3 °F 33.8 °F 62% 29.98 in 10.0 mi WNW 4.6 mph - N/A   Mostly Cloudy
2:55 PM 45.5 °F 42.5 °F 32.2 °F 60% 29.98 in 10.0 mi West 5.8 mph - N/A   Clear
3:55 PM 46.0 °F 41.4 °F 32.0 °F 58% 29.99 in 10.0 mi WSW 9.2 mph - N/A   Clear
4:55 PM 44.8 °F 42.4 °F 30.9 °F 58% 29.98 in 10.0 mi SW 4.6 mph - N/A   Clear
5:55 PM 37.4 °F 32.8 °F 34.9 °F 91% 30.01 in 10.0 mi SE 5.8 mph - N/A   Clear
6:55 PM 35.6 °F 29.9 °F 34.5 °F 96% 30.02 in 10.0 mi SE 6.9 mph - N/A   Clear
7:55 PM 35.4 °F 31.5 °F 35.1 °F 99% 30.02 in 8.0 mi SSE 4.6 mph - N/A   Clear
8:20 PM 33.8 °F 28.6 °F 33.8 °F 100% 30.02 in 7.0 mi South 5.8 mph - N/A   Clear
8:55 PM 33.8 °F 28.6 °F 33.6 °F 99% 30.03 in 7.0 mi South 5.8 mph - N/A   Clear
9:55 PM 34.3 °F 31.4 °F 34.0 °F 99% 30.04 in 7.0 mi South 3.5 mph - N/A   Clear
10:16 PM 33.8 °F 28.6 °F 33.8 °F 100% 30.03 in 8.0 mi South 5.8 mph - N/A   Clear
10:55 PM 33.1 °F 27.7 °F 32.5 °F 98% 30.03 in 8.0 mi South 5.8 mph - N/A   Clear
11:55 PM 33.3 °F 25.7 °F 31.8 °F 94% 30.04 in 9.0 mi South 9.2 mph - N/A   Clear